Location: Endfield
(51.6667°N, 0.0667°W)
Time: 06:35:43
(UTC+00:00)

Cosmos 2369 Rocket - Pass Details

Date: 19 May 2024
Orbit: 829 x 851 km, 71.0° (Epoch: 19 June)

Event Time Altitude Azimuth Distance (km) Brightness Sun altitude
Rises 21:19:57 0° 328° (NNW) 3,384 7.5 -10.5°
Reaches altitude 10° 21:22:23 10° 327° (NNW) 2,447 6.2 -10.8°
Maximum altitude 21:27:59 77° 243° (WSW) 857 2.3 -11.3°
Enters shadow 21:32:41 15° 159° (SSE) 2,105 3.6 -11.7°
